STARLINK-11743, 64379

Orbit data source: Space-Track

STARLINK-11743, 64379 is a payload satellite owned by SpaceX/Seattle (US) in LEO that was launched on Fri, 13 Jun 2025 UTC via an FALCON 9 launch vehicle from the Air Force Eastern Test Range (AFETR). Payload-class satellites include a variety of spacecraft equipped with specific instruments for various scientific and technological missions. These include communications satellites like Starlink; space stations such as the ISS; scientific satellites like the Hubble; Earth observation satellites from companies like Planet Labs, Umbra, and HawkEye 360; GPS; miniature CubeSats for education and research; and military/defense satellites.

Loading next visibility...
Identifier
64379, 2025-127K
Orbit
LEO
Country
Flag of USUS
Related business
Manufacturer
SpaceX/Seattle
Mission
Operational Commercial Communications
Bus & Motor
STARLINK V2MD, Unknown motor
Mass
960 kg wet, ~910 kg dry
Launch date (UTC)
2025-06-13 (10 months ago)
Launch vehicle
FALCON 9
Launch site
Air Force Eastern Test Range (AFETR)
Object type
Payload
Rocket body
Debris
Shape & HBR
Box + 2 Pan, 18.1 m
Radar Cross Section
36.964 m², Large (>1 m²)

Expand to show TLE details & history
Last TLE update: 11 hours ago

TLE from 11 hours ago
0 STARLINK-11743
1 64379U 25127K   26095.23760464  .00308487  00000-0  23054-2 0  9996
2 64379  43.0013 284.8727 0000740 276.0705  84.0079 15.70984470 47675
Epoch: 2026-04-05T05:42Z
TLE epoch observation values (Epoch: 2026-04-05T05:42:09.040Z)
Latitude
0.00001°
Longitude
5.78913°
Altitude
355.801 km
Speed
7.698 km/s
True Right ascension
18h 59m 29s
True Declination
0° 00' 00"
Sunlit
Object was in daylight at epoch
Visualization orbit readout
Latitude
Unknown
Longitude
Unknown
Altitude
Unknown
Speed
Unknown
Apparent Right ascension
Unknown
Apparent Declination
Unknown
Sunlit
N/A
Visualization observer readout
Local Sidereal Time
22:15:49
Azimuth
Unknown
Elevation
Unknown
Doppler factor
Unknown
Orbital elements
Apogee altitude
358.562 km
Perigee altitude
357.565 km
Semi-major axis
6,736.201 km
Eccentricity
0.00007
Inclination
43.0013°
RAAN
284.8727°
Arg. of periapsis
276.0705°
True anomaly
84.01633°
Mean anomaly
84.0079°
Eccentric anomaly
84.01212°
Mean motion
3.92573 °/min
Orbital period
91.7 mins
BSTAR
0.0023054
Loading maneuver chart data...
Computing Atmospheric mass density...
Loading historical data...
Loading historical data...
Loading historical data...
Loading historical data...
Loading historical data...
Loading historical data...
Loading historical data...

Documentation

Showing up to 5 results
|